station,date_time,longitude_east,latitude_north,depth,sw_sal,sw_sal_result_value_qualifier,sea_water_temperature,sea_water_temperature_result_value_qualifier,sea_water_pressure,sea_water_pressure_result_value_qualifier,KD_PAR,KD_PAR_result_value_qualifier
CH4-5,2018-04-29T23:00:00Z,-79.19,54.15,2.70,12.87,,-0.96,,, NC,, NC
CH4-5,2018-04-29T23:10:00Z,-79.19,54.15,2.70,13.09,,-0.95,,, NC,, NC
CH4-5,2018-04-29T23:20:00Z,-79.19,54.15,2.70,14.46,,-0.93,,, NC,, NC
CH4-5,2018-04-29T23:30:00Z,-79.19,54.15,2.70,14.50,,-0.93,,, NC,, NC
CH4-5,2018-04-29T23:40:00Z,-79.19,54.15,2.70,14.50,,-0.92,,, NC,, NC
CH4-5,2018-04-29T23:50:00Z,-79.19,54.15,2.70,14.47,,-0.92,,, NC,, NC
CH4-5,2018-04-30T00:00:00Z,-79.19,54.15,2.70,14.44,,-0.93,,, NC,, NC
CH4-5,2018-04-30T00:10:00Z,-79.19,54.15,2.70,14.47,,-0.93,,, NC,, NC
CH4-5,2018-04-30T00:20:00Z,-79.19,54.15,2.70,14.47,,-0.93,,, NC,, NC
CH4-5,2018-04-30T00:30:00Z,-79.19,54.15,2.70,14.43,,-0.93,,, NC,, NC
CH4-5,2018-04-30T00:40:00Z,-79.19,54.15,2.70,14.41,,-0.93,,, NC,, NC
CH4-5,2018-04-30T00:50:00Z,-79.19,54.15,2.70,14.40,,-0.93,,, NC,, NC
CH4-5,2018-04-30T01:00:00Z,-79.19,54.15,2.70,14.40,,-0.93,,, NC,, NC
CH4-5,2018-04-30T01:10:00Z,-79.19,54.15,2.70,14.39,,-0.93,,, NC,, NC
CH4-5,2018-04-30T01:20:00Z,-79.19,54.15,2.70,14.38,,-0.95,,, NC,, NC
CH4-5,2018-04-30T01:30:00Z,-79.19,54.15,2.70,14.35,,-0.93,,, NC,, NC
CH4-5,2018-04-30T01:40:00Z,-79.19,54.15,2.70,14.32,,-0.93,,, NC,, NC
CH4-5,2018-04-30T01:50:00Z,-79.19,54.15,2.70,14.30,,-0.93,,, NC,, NC
CH4-5,2018-04-30T02:00:00Z,-79.19,54.15,2.70,14.28,,-0.93,,, NC,, NC
CH4-5,2018-04-30T02:10:00Z,-79.19,54.15,2.70,14.25,,-0.93,,, NC,, NC
CH4-5,2018-04-30T02:20:00Z,-79.19,54.15,2.70,14.22,,-0.93,,, NC,, NC
CH4-5,2018-04-30T02:30:00Z,-79.19,54.15,2.70,14.20,,-0.93,,, NC,, NC
CH4-5,2018-04-30T02:40:00Z,-79.19,54.15,2.70,14.17,,-0.93,,, NC,, NC
CH4-5,2018-04-30T02:50:00Z,-79.19,54.15,2.70,14.01,,-0.92,,, NC,, NC
CH4-5,2018-04-30T03:00:00Z,-79.19,54.15,2.70,13.71,,-0.92,,, NC,, NC
CH4-5,2018-04-30T03:10:00Z,-79.19,54.15,2.70,13.41,,-0.91,,, NC,, NC
CH4-5,2018-04-30T03:20:00Z,-79.19,54.15,2.70,13.21,,-0.90,,, NC,, NC
CH4-5,2018-04-30T03:30:00Z,-79.19,54.15,2.70,13.07,,-0.89,,, NC,, NC
CH4-5,2018-04-30T03:40:00Z,-79.19,54.15,2.70,12.96,,-0.88,,, NC,, NC
CH4-5,2018-04-30T03:50:00Z,-79.19,54.15,2.70,12.91,,-0.88,,, NC,, NC
CH4-5,2018-04-30T04:00:00Z,-79.19,54.15,2.70,12.87,,-0.88,,, NC,, NC
CH4-5,2018-04-30T04:10:00Z,-79.19,54.15,2.70,12.84,,-0.88,,, NC,, NC
CH4-5,2018-04-30T04:20:00Z,-79.19,54.15,2.70,12.80,,-0.87,,, NC,, NC
CH4-5,2018-04-30T04:30:00Z,-79.19,54.15,2.70,12.76,,-0.87,,, NC,, NC
CH4-5,2018-04-30T04:40:00Z,-79.19,54.15,2.70,12.72,,-0.86,,, NC,, NC
CH4-5,2018-04-30T04:50:00Z,-79.19,54.15,2.70,12.68,,-0.87,,, NC,, NC
CH4-5,2018-04-30T05:00:00Z,-79.19,54.15,2.70,12.63,,-0.87,,, NC,, NC
CH4-5,2018-04-30T05:10:00Z,-79.19,54.15,2.70,12.58,,-0.87,,, NC,, NC
CH4-5,2018-04-30T05:20:00Z,-79.19,54.15,2.70,12.52,,-0.86,,, NC,, NC
CH4-5,2018-04-30T05:30:00Z,-79.19,54.15,2.70,12.47,,-0.84,,, NC,, NC
CH4-5,2018-04-30T05:40:00Z,-79.19,54.15,2.70,12.44,,-0.86,,, NC,, NC
CH4-5,2018-04-30T05:50:00Z,-79.19,54.15,2.70,12.43,,-0.86,,, NC,, NC
CH4-5,2018-04-30T06:00:00Z,-79.19,54.15,2.70,12.45,,-0.86,,, NC,, NC
CH4-5,2018-04-30T06:10:00Z,-79.19,54.15,2.70,12.47,,-0.86,,, NC,, NC
CH4-5,2018-04-30T06:20:00Z,-79.19,54.15,2.70,12.72,,-0.87,,, NC,, NC
CH4-5,2018-04-30T06:30:00Z,-79.19,54.15,2.70,12.95,,-0.87,,, NC,, NC
CH4-5,2018-04-30T06:40:00Z,-79.19,54.15,2.70,13.00,,-0.88,,, NC,, NC
CH4-5,2018-04-30T06:50:00Z,-79.19,54.15,2.70,13.42,,-0.90,,, NC,, NC
CH4-5,2018-04-30T07:00:00Z,-79.19,54.15,2.70,13.50,,-0.89,,, NC,, NC
CH4-5,2018-04-30T07:10:00Z,-79.19,54.15,2.70,13.75,,-0.90,,, NC,, NC
CH4-5,2018-04-30T07:20:00Z,-79.19,54.15,2.70,13.73,,-0.91,,, NC,, NC
CH4-5,2018-04-30T07:30:00Z,-79.19,54.15,2.70,13.89,,-0.91,,, NC,, NC
CH4-5,2018-04-30T07:40:00Z,-79.19,54.15,2.70,14.29,,-0.92,,, NC,, NC
CH4-5,2018-04-30T07:50:00Z,-79.19,54.15,2.70,14.63,,-0.92,,, NC,, NC
CH4-5,2018-04-30T08:00:00Z,-79.19,54.15,2.70,14.73,,-0.93,,, NC,, NC
CH4-5,2018-04-30T08:10:00Z,-79.19,54.15,2.70,14.73,,-0.93,,, NC,, NC
CH4-5,2018-04-30T08:20:00Z,-79.19,54.15,2.70,14.76,,-0.93,,, NC,, NC
CH4-5,2018-04-30T08:30:00Z,-79.19,54.15,2.70,14.75,,-0.93,,, NC,, NC
CH4-5,2018-04-30T08:40:00Z,-79.19,54.15,2.70,14.77,,-0.93,,, NC,, NC
CH4-5,2018-04-30T08:50:00Z,-79.19,54.15,2.70,14.85,,-0.93,,, NC,, NC
CH4-5,2018-04-30T09:00:00Z,-79.19,54.15,2.70,14.94,,-0.95,,, NC,, NC
CH4-5,2018-04-30T09:10:00Z,-79.19,54.15,2.70,14.94,,-0.93,,, NC,, NC
CH4-5,2018-04-30T09:20:00Z,-79.19,54.15,2.70,14.99,,-0.95,,, NC,, NC
CH4-5,2018-04-30T09:30:00Z,-79.19,54.15,2.70,14.98,,-0.95,,, NC,, NC
CH4-5,2018-04-30T09:40:00Z,-79.19,54.15,2.70,14.96,,-0.93,,, NC,, NC
CH4-5,2018-04-30T09:50:00Z,-79.19,54.15,2.70,14.97,,-0.93,,, NC,, NC
CH4-5,2018-04-30T10:00:00Z,-79.19,54.15,2.70,14.95,,-0.93,,, NC,, NC
CH4-5,2018-04-30T10:10:00Z,-79.19,54.15,2.70,14.79,,-0.93,,, NC,, NC
CH4-5,2018-04-30T10:20:00Z,-79.19,54.15,2.70,14.73,,-0.93,,, NC,, NC
CH4-5,2018-04-30T10:30:00Z,-79.19,54.15,2.70,14.69,,-0.93,,, NC,, NC
CH4-5,2018-04-30T10:40:00Z,-79.19,54.15,2.70,14.79,,-0.93,,, NC,, NC
CH4-5,2018-04-30T10:50:00Z,-79.19,54.15,2.70,14.62,,-0.92,,, NC,, NC
CH4-5,2018-04-30T11:00:00Z,-79.19,54.15,2.70,14.75,,-0.92,,, NC,, NC
CH4-5,2018-04-30T11:10:00Z,-79.19,54.15,2.70,14.89,,-0.92,,, NC,, NC
CH4-5,2018-04-30T11:20:00Z,-79.19,54.15,2.70,15.03,,-0.93,,, NC,, NC
CH4-5,2018-04-30T11:30:00Z,-79.19,54.15,2.70,14.98,,-0.93,,, NC,, NC
CH4-5,2018-04-30T11:40:00Z,-79.19,54.15,2.70,14.94,,-0.92,,, NC,, NC
CH4-5,2018-04-30T11:50:00Z,-79.19,54.15,2.70,14.88,,-0.93,,, NC,, NC
CH4-5,2018-04-30T12:00:00Z,-79.19,54.15,2.70,14.85,,-0.92,,, NC,, NC
CH4-5,2018-04-30T12:10:00Z,-79.19,54.15,2.70,14.83,,-0.92,,, NC,, NC
CH4-5,2018-04-30T12:20:00Z,-79.19,54.15,2.70,14.85,,-0.93,,, NC,, NC
CH4-5,2018-04-30T12:30:00Z,-79.19,54.15,2.70,14.89,,-0.95,,, NC,, NC
CH4-5,2018-04-30T12:40:00Z,-79.19,54.15,2.70,14.91,,-0.95,,, NC,, NC
CH4-5,2018-04-30T12:50:00Z,-79.19,54.15,2.70,14.96,,-0.96,,, NC,, NC
CH4-5,2018-04-30T13:00:00Z,-79.19,54.15,2.70,14.98,,-0.96,,, NC,, NC
CH4-5,2018-04-30T13:10:00Z,-79.19,54.15,2.70,14.98,,-0.96,,, NC,, NC
CH4-5,2018-04-30T13:20:00Z,-79.19,54.15,2.70,14.98,,-0.96,,, NC,, NC
CH4-5,2018-04-30T13:30:00Z,-79.19,54.15,2.70,14.97,,-0.96,,, NC,, NC
CH4-5,2018-04-30T13:40:00Z,-79.19,54.15,2.70,14.96,,-0.96,,, NC,, NC
CH4-5,2018-04-30T13:50:00Z,-79.19,54.15,2.70,14.95,,-0.96,,, NC,, NC
CH4-5,2018-04-30T14:00:00Z,-79.19,54.15,2.70,14.95,,-0.96,,, NC,, NC
CH4-5,2018-04-30T14:10:00Z,-79.19,54.15,2.70,14.93,,-0.96,,, NC,, NC
CH4-5,2018-04-30T14:20:00Z,-79.19,54.15,2.70,14.90,,-0.96,,, NC,, NC
CH4-5,2018-04-30T14:30:00Z,-79.19,54.15,2.70,14.79,,-0.95,,, NC,, NC
CH4-5,2018-04-30T14:40:00Z,-79.19,54.15,2.70,14.52,,-0.95,,, NC,, NC
CH4-5,2018-04-30T14:50:00Z,-79.19,54.15,2.70,14.25,,-0.93,,, NC,, NC
CH4-5,2018-04-30T15:00:00Z,-79.19,54.15,2.70,14.01,,-0.93,,, NC,, NC
CH4-5,2018-04-30T15:10:00Z,-79.19,54.15,2.70,13.79,,-0.92,,, NC,, NC
CH4-5,2018-04-30T15:20:00Z,-79.19,54.15,2.70,13.63,,-0.91,,, NC,, NC
CH4-5,2018-04-30T15:30:00Z,-79.19,54.15,2.70,13.52,,-0.90,,, NC,, NC
CH4-5,2018-04-30T15:40:00Z,-79.19,54.15,2.70,13.44,,-0.89,,, NC,, NC
CH4-5,2018-04-30T15:50:00Z,-79.19,54.15,2.70,13.38,,-0.89,,, NC,, NC
CH4-5,2018-04-30T16:00:00Z,-79.19,54.15,2.70,13.31,,-0.90,,, NC,, NC
CH4-5,2018-04-30T16:10:00Z,-79.19,54.15,2.70,13.26,,-0.89,,, NC,, NC
CH4-5,2018-04-30T16:20:00Z,-79.19,54.15,2.70,13.24,,-0.89,,, NC,, NC
CH4-5,2018-04-30T16:30:00Z,-79.19,54.15,2.70,13.22,,-0.89,,, NC,, NC
CH4-5,2018-04-30T16:40:00Z,-79.19,54.15,2.70,13.18,,-0.88,,, NC,, NC
CH4-5,2018-04-30T16:50:00Z,-79.19,54.15,2.70,13.16,,-0.88,,, NC,, NC
CH4-5,2018-04-30T17:00:00Z,-79.19,54.15,2.70,13.13,,-0.88,,, NC,, NC
CH4-5,2018-04-30T17:10:00Z,-79.19,54.15,2.70,13.12,,-0.88,,, NC,, NC
CH4-5,2018-04-30T17:20:00Z,-79.19,54.15,2.70,13.12,,-0.88,,, NC,, NC
CH4-5,2018-04-30T17:30:00Z,-79.19,54.15,2.70,13.10,,-0.88,,, NC,, NC
CH4-5,2018-04-30T17:40:00Z,-79.19,54.15,2.70,13.07,,-0.88,,, NC,, NC
CH4-5,2018-04-30T17:50:00Z,-79.19,54.15,2.70,13.04,,-0.88,,, NC,, NC
CH4-5,2018-04-30T18:00:00Z,-79.19,54.15,2.70,13.02,,-0.88,,, NC,, NC
CH4-5,2018-04-30T18:10:00Z,-79.19,54.15,2.70,13.01,,-0.88,,, NC,, NC
CH4-5,2018-04-30T18:20:00Z,-79.19,54.15,2.70,13.01,,-0.88,,, NC,, NC
CH4-5,2018-04-30T18:30:00Z,-79.19,54.15,2.70,13.00,,-0.88,,, NC,, NC
CH4-5,2018-04-30T18:40:00Z,-79.19,54.15,2.70,13.00,,-0.88,,, NC,, NC
CH4-5,2018-04-30T18:50:00Z,-79.19,54.15,2.70,13.02,,-0.88,,, NC,, NC
CH4-5,2018-04-30T19:00:00Z,-79.19,54.15,2.70,13.04,,-0.88,,, NC,, NC
CH4-5,2018-04-30T19:10:00Z,-79.19,54.15,2.70,13.27,,-0.88,,, NC,, NC
CH4-5,2018-04-30T19:20:00Z,-79.19,54.15,2.70,13.55,,-0.90,,, NC,, NC
CH4-5,2018-04-30T19:30:00Z,-79.19,54.15,2.70,13.86,,-0.91,,, NC,, NC
CH4-5,2018-04-30T19:40:00Z,-79.19,54.15,2.70,13.85,,-0.90,,, NC,, NC
CH4-5,2018-04-30T19:50:00Z,-79.19,54.15,2.70,13.99,,-0.91,,, NC,, NC
CH4-5,2018-04-30T20:00:00Z,-79.19,54.15,2.70,14.19,,-0.91,,, NC,, NC
CH4-5,2018-04-30T20:10:00Z,-79.19,54.15,2.70,14.52,,-0.92,,, NC,, NC
CH4-5,2018-04-30T20:20:00Z,-79.19,54.15,2.70,14.72,,-0.93,,, NC,, NC
CH4-5,2018-04-30T20:30:00Z,-79.19,54.15,2.70,14.69,,-0.93,,, NC,, NC
CH4-5,2018-04-30T20:40:00Z,-79.19,54.15,2.70,14.76,,-0.93,,, NC,, NC
CH4-5,2018-04-30T20:50:00Z,-79.19,54.15,2.70,14.80,,-0.92,,, NC,, NC
CH4-5,2018-04-30T21:00:00Z,-79.19,54.15,2.70,14.83,,-0.93,,, NC,, NC
CH4-5,2018-04-30T21:10:00Z,-79.19,54.15,2.70,14.89,,-0.95,,, NC,, NC
CH4-5,2018-04-30T21:20:00Z,-79.19,54.15,2.70,14.95,,-0.93,,, NC,, NC
CH4-5,2018-04-30T21:30:00Z,-79.19,54.15,2.70,15.04,,-0.96,,, NC,, NC
CH4-5,2018-04-30T21:40:00Z,-79.19,54.15,2.70,15.06,,-0.95,,, NC,, NC
CH4-5,2018-04-30T21:50:00Z,-79.19,54.15,2.70,15.03,,-0.95,,, NC,, NC
CH4-5,2018-04-30T22:00:00Z,-79.19,54.15,2.70,15.06,,-0.95,,, NC,, NC
CH4-5,2018-04-30T22:10:00Z,-79.19,54.15,2.70,15.02,,-0.95,,, NC,, NC
CH4-5,2018-04-30T22:20:00Z,-79.19,54.15,2.70,14.95,,-0.95,,, NC,, NC
CH4-5,2018-04-30T22:30:00Z,-79.19,54.15,2.70,14.95,,-0.95,,, NC,, NC
CH4-5,2018-04-30T22:40:00Z,-79.19,54.15,2.70,14.87,,-0.95,,, NC,, NC
CH4-5,2018-04-30T22:50:00Z,-79.19,54.15,2.70,14.90,,-0.93,,, NC,, NC
CH4-5,2018-04-30T23:00:00Z,-79.19,54.15,2.70,14.98,,-0.95,,, NC,, NC
CH4-5,2018-04-30T23:10:00Z,-79.19,54.15,2.70,15.05,,-0.95,,, NC,, NC
CH4-5,2018-04-30T23:20:00Z,-79.19,54.15,2.70,14.99,,-0.95,,, NC,, NC
CH4-5,2018-04-30T23:30:00Z,-79.19,54.15,2.70,15.08,,-0.95,,, NC,, NC
CH4-5,2018-04-30T23:40:00Z,-79.19,54.15,2.70,15.11,,-0.95,,, NC,, NC
CH4-5,2018-04-30T23:50:00Z,-79.19,54.15,2.70,15.07,,-0.96,,, NC,, NC
CH4-5,2018-05-01T00:00:00Z,-79.19,54.15,2.70,14.95,,-0.96,,, NC,, NC
CH4-5,2018-05-01T00:10:00Z,-79.19,54.15,2.70,15.00,,-0.96,,, NC,, NC
CH4-5,2018-05-01T00:20:00Z,-79.19,54.15,2.70,14.97,,-0.96,,, NC,, NC
CH4-5,2018-05-01T00:30:00Z,-79.19,54.15,2.70,14.92,,-0.97,,, NC,, NC
CH4-5,2018-05-01T00:40:00Z,-79.19,54.15,2.70,14.96,,-0.96,,, NC,, NC
CH4-5,2018-05-01T00:50:00Z,-79.19,54.15,2.70,15.06,,-0.97,,, NC,, NC
CH4-5,2018-05-01T01:00:00Z,-79.19,54.15,2.70,15.05,,-0.98,,, NC,, NC
CH4-5,2018-05-01T01:10:00Z,-79.19,54.15,2.70,15.04,,-0.97,,, NC,, NC
CH4-5,2018-05-01T01:20:00Z,-79.19,54.15,2.70,15.04,,-0.97,,, NC,, NC
CH4-5,2018-05-01T01:30:00Z,-79.19,54.15,2.70,15.04,,-0.97,,, NC,, NC
CH4-5,2018-05-01T01:40:00Z,-79.19,54.15,2.70,15.01,,-0.98,,, NC,, NC
CH4-5,2018-05-01T01:50:00Z,-79.19,54.15,2.70,14.97,,-0.97,,, NC,, NC
CH4-5,2018-05-01T02:00:00Z,-79.19,54.15,2.70,14.93,,-0.96,,, NC,, NC
CH4-5,2018-05-01T02:10:00Z,-79.19,54.15,2.70,14.89,,-0.97,,, NC,, NC
CH4-5,2018-05-01T02:20:00Z,-79.19,54.15,2.70,14.74,,-0.96,,, NC,, NC
CH4-5,2018-05-01T02:30:00Z,-79.19,54.15,2.70,14.50,,-0.95,,, NC,, NC
CH4-5,2018-05-01T02:40:00Z,-79.19,54.15,2.70,14.30,,-0.95,,, NC,, NC
CH4-5,2018-05-01T02:50:00Z,-79.19,54.15,2.70,14.09,,-0.93,,, NC,, NC
CH4-5,2018-05-01T03:00:00Z,-79.19,54.15,2.70,13.93,,-0.93,,, NC,, NC
CH4-5,2018-05-01T03:10:00Z,-79.19,54.15,2.70,13.82,,-0.93,,, NC,, NC
CH4-5,2018-05-01T03:20:00Z,-79.19,54.15,2.70,13.73,,-0.91,,, NC,, NC
CH4-5,2018-05-01T03:30:00Z,-79.19,54.15,2.70,13.67,,-0.91,,, NC,, NC
CH4-5,2018-05-01T03:40:00Z,-79.19,54.15,2.70,13.62,,-0.92,,, NC,, NC
CH4-5,2018-05-01T03:50:00Z,-79.19,54.15,2.70,13.58,,-0.91,,, NC,, NC
CH4-5,2018-05-01T04:00:00Z,-79.19,54.15,2.70,13.54,,-0.91,,, NC,, NC
CH4-5,2018-05-01T04:10:00Z,-79.19,54.15,2.70,13.52,,-0.91,,, NC,, NC
CH4-5,2018-05-01T04:20:00Z,-79.19,54.15,2.70,13.49,,-0.90,,, NC,, NC
CH4-5,2018-05-01T04:30:00Z,-79.19,54.15,2.70,13.47,,-0.90,,, NC,, NC
CH4-5,2018-05-01T04:40:00Z,-79.19,54.15,2.70,13.46,,-0.91,,, NC,, NC
CH4-5,2018-05-01T04:50:00Z,-79.19,54.15,2.70,13.44,,-0.90,,, NC,, NC
CH4-5,2018-05-01T05:00:00Z,-79.19,54.15,2.70,13.42,,-0.91,,, NC,, NC
CH4-5,2018-05-01T05:10:00Z,-79.19,54.15,2.70,13.39,,-0.90,,, NC,, NC
CH4-5,2018-05-01T05:20:00Z,-79.19,54.15,2.70,13.36,,-0.90,,, NC,, NC
CH4-5,2018-05-01T05:30:00Z,-79.19,54.15,2.70,13.32,,-0.90,,, NC,, NC
CH4-5,2018-05-01T05:40:00Z,-79.19,54.15,2.70,13.27,,-0.89,,, NC,, NC
CH4-5,2018-05-01T05:50:00Z,-79.19,54.15,2.70,13.22,,-0.90,,, NC,, NC
CH4-5,2018-05-01T06:00:00Z,-79.19,54.15,2.70,13.19,,-0.89,,, NC,, NC
CH4-5,2018-05-01T06:10:00Z,-79.19,54.15,2.70,13.16,,-0.89,,, NC,, NC
CH4-5,2018-05-01T06:20:00Z,-79.19,54.15,2.70,13.11,,-0.88,,, NC,, NC
CH4-5,2018-05-01T06:30:00Z,-79.19,54.15,2.70,13.07,,-0.88,,, NC,, NC
CH4-5,2018-05-01T06:40:00Z,-79.19,54.15,2.70,13.02,,-0.88,,, NC,, NC
CH4-5,2018-05-01T06:50:00Z,-79.19,54.15,2.70,12.98,,-0.88,,, NC,, NC
CH4-5,2018-05-01T07:00:00Z,-79.19,54.15,2.70,12.95,,-0.87,,, NC,, NC
CH4-5,2018-05-01T07:10:00Z,-79.19,54.15,2.70,12.94,,-0.87,,, NC,, NC
CH4-5,2018-05-01T07:20:00Z,-79.19,54.15,2.70,12.93,,-0.88,,, NC,, NC
CH4-5,2018-05-01T07:30:00Z,-79.19,54.15,2.70,12.93,,-0.89,,, NC,, NC
CH4-5,2018-05-01T07:40:00Z,-79.19,54.15,2.70,12.94,,-0.88,,, NC,, NC
CH4-5,2018-05-01T07:50:00Z,-79.19,54.15,2.70,13.05,,-0.88,,, NC,, NC
CH4-5,2018-05-01T08:00:00Z,-79.19,54.15,2.70,13.31,,-0.89,,, NC,, NC
CH4-5,2018-05-01T08:10:00Z,-79.19,54.15,2.70,13.47,,-0.90,,, NC,, NC
CH4-5,2018-05-01T08:20:00Z,-79.19,54.15,2.70,13.62,,-0.91,,, NC,, NC
CH4-5,2018-05-01T08:30:00Z,-79.19,54.15,2.70,13.77,,-0.92,,, NC,, NC
CH4-5,2018-05-01T08:40:00Z,-79.19,54.15,2.70,13.83,,-0.92,,, NC,, NC
CH4-5,2018-05-01T08:50:00Z,-79.19,54.15,2.70,14.55,,-0.95,,, NC,, NC
CH4-5,2018-05-01T09:00:00Z,-79.19,54.15,2.70,14.87,,-0.96,,, NC,, NC
CH4-5,2018-05-01T09:10:00Z,-79.19,54.15,2.70,15.00,,-0.95,,, NC,, NC
CH4-5,2018-05-01T09:20:00Z,-79.19,54.15,2.70,15.03,,-0.95,,, NC,, NC
CH4-5,2018-05-01T09:30:00Z,-79.19,54.15,2.70,14.96,,-0.96,,, NC,, NC
CH4-5,2018-05-01T09:40:00Z,-79.19,54.15,2.70,15.00,,-0.96,,, NC,, NC
CH4-5,2018-05-01T09:50:00Z,-79.19,54.15,2.70,14.97,,-0.93,,, NC,, NC
CH4-5,2018-05-01T10:00:00Z,-79.19,54.15,2.70,15.08,,-0.95,,, NC,, NC
CH4-5,2018-05-01T10:10:00Z,-79.19,54.15,2.70,15.09,,-0.96,,, NC,, NC
CH4-5,2018-05-01T10:20:00Z,-79.19,54.15,2.70,15.07,,-0.95,,, NC,, NC
CH4-5,2018-05-01T10:30:00Z,-79.19,54.15,2.70,15.03,,-0.95,,, NC,, NC
CH4-5,2018-05-01T10:40:00Z,-79.19,54.15,2.70,15.03,,-0.95,,, NC,, NC
CH4-5,2018-05-01T10:50:00Z,-79.19,54.15,2.70,15.02,,-0.95,,, NC,, NC
CH4-5,2018-05-01T11:00:00Z,-79.19,54.15,2.70,14.99,,-0.95,,, NC,, NC
CH4-5,2018-05-01T11:10:00Z,-79.19,54.15,2.70,15.03,,-0.95,,, NC,, NC
CH4-5,2018-05-01T11:20:00Z,-79.19,54.15,2.70,14.99,,-0.95,,, NC,, NC
CH4-5,2018-05-01T11:30:00Z,-79.19,54.15,2.70,15.00,,-0.95,,, NC,, NC
CH4-5,2018-05-01T11:40:00Z,-79.19,54.15,2.70,15.00,,-0.93,,, NC,, NC
CH4-5,2018-05-01T11:50:00Z,-79.19,54.15,2.70,15.01,,-0.93,,, NC,, NC
CH4-5,2018-05-01T12:00:00Z,-79.19,54.15,2.70,15.00,,-0.93,,, NC,, NC
CH4-5,2018-05-01T12:10:00Z,-79.19,54.15,2.70,15.00,,-0.93,,, NC,, NC
CH4-5,2018-05-01T12:20:00Z,-79.19,54.15,2.70,14.98,,-0.93,,, NC,, NC
CH4-5,2018-05-01T12:30:00Z,-79.19,54.15,2.70,14.97,,-0.95,,, NC,, NC
CH4-5,2018-05-01T12:40:00Z,-79.19,54.15,2.70,14.95,,-0.95,,, NC,, NC
CH4-5,2018-05-01T12:50:00Z,-79.19,54.15,2.70,14.97,,-0.96,,, NC,, NC
CH4-5,2018-05-01T13:00:00Z,-79.19,54.15,2.70,15.01,,-0.96,,, NC,, NC
CH4-5,2018-05-01T13:10:00Z,-79.19,54.15,2.70,15.03,,-0.96,,, NC,, NC
CH4-5,2018-05-01T13:20:00Z,-79.19,54.15,2.70,15.04,,-0.96,,, NC,, NC
CH4-5,2018-05-01T13:30:00Z,-79.19,54.15,2.70,15.04,,-0.96,,, NC,, NC
CH4-5,2018-05-01T13:40:00Z,-79.19,54.15,2.70,15.04,,-0.97,,, NC,, NC
CH4-5,2018-05-01T13:50:00Z,-79.19,54.15,2.70,15.04,,-0.97,,, NC,, NC
CH4-5,2018-05-01T14:00:00Z,-79.19,54.15,2.70,15.04,,-0.97,,, NC,, NC
CH4-5,2018-05-01T14:10:00Z,-79.19,54.15,2.70,15.03,,-0.97,,, NC,, NC
CH4-5,2018-05-01T14:20:00Z,-79.19,54.15,2.70,15.01,,-0.96,,, NC,, NC
CH4-5,2018-05-01T14:30:00Z,-79.19,54.15,2.70,15.01,,-0.97,,, NC,, NC
CH4-5,2018-05-01T14:40:00Z,-79.19,54.15,2.70,15.00,,-0.97,,, NC,, NC
CH4-5,2018-05-01T14:50:00Z,-79.19,54.15,2.70,14.84,,-0.97,,, NC,, NC
CH4-5,2018-05-01T15:00:00Z,-79.19,54.15,2.70,14.50,,-0.96,,, NC,, NC
CH4-5,2018-05-01T15:10:00Z,-79.19,54.15,2.70,14.23,,-0.95,,, NC,, NC
CH4-5,2018-05-01T15:20:00Z,-79.19,54.15,2.70,14.06,,-0.93,,, NC,, NC
CH4-5,2018-05-01T15:30:00Z,-79.19,54.15,2.70,13.92,,-0.92,,, NC,, NC
CH4-5,2018-05-01T15:40:00Z,-79.19,54.15,2.70,13.84,,-0.92,,, NC,, NC
CH4-5,2018-05-01T15:50:00Z,-79.19,54.15,2.70,13.79,,-0.92,,, NC,, NC
CH4-5,2018-05-01T16:00:00Z,-79.19,54.15,2.70,13.74,,-0.92,,, NC,, NC
CH4-5,2018-05-01T16:10:00Z,-79.19,54.15,2.70,13.69,,-0.91,,, NC,, NC
CH4-5,2018-05-01T16:20:00Z,-79.19,54.15,2.70,13.64,,-0.92,,, NC,, NC
CH4-5,2018-05-01T16:30:00Z,-79.19,54.15,2.70,13.58,,-0.90,,, NC,, NC
CH4-5,2018-05-01T16:40:00Z,-79.19,54.15,2.70,13.53,,-0.91,,, NC,, NC
CH4-5,2018-05-01T16:50:00Z,-79.19,54.15,2.70,13.47,,-0.90,,, NC,, NC
CH4-5,2018-05-01T17:00:00Z,-79.19,54.15,2.70,13.42,,-0.90,,, NC,, NC
CH4-5,2018-05-01T17:10:00Z,-79.19,54.15,2.70,13.37,,-0.90,,, NC,, NC
CH4-5,2018-05-01T17:20:00Z,-79.19,54.15,2.70,13.32,,-0.90,,, NC,, NC
CH4-5,2018-05-01T17:30:00Z,-79.19,54.15,2.70,13.26,,-0.90,,, NC,, NC
CH4-5,2018-05-01T17:40:00Z,-79.19,54.15,2.70,13.20,,-0.89,,, NC,, NC
CH4-5,2018-05-01T17:50:00Z,-79.19,54.15,2.70,13.14,,-0.89,,, NC,, NC
CH4-5,2018-05-01T18:00:00Z,-79.19,54.15,2.70,13.08,,-0.89,,, NC,, NC
CH4-5,2018-05-01T18:10:00Z,-79.19,54.15,2.70,13.02,,-0.89,,, NC,, NC
CH4-5,2018-05-01T18:20:00Z,-79.19,54.15,2.70,12.97,,-0.88,,, NC,, NC
CH4-5,2018-05-01T18:30:00Z,-79.19,54.15,2.70,12.93,,-0.88,,, NC,, NC
CH4-5,2018-05-01T18:40:00Z,-79.19,54.15,2.70,12.89,,-0.88,,, NC,, NC
CH4-5,2018-05-01T18:50:00Z,-79.19,54.15,2.70,12.87,,-0.88,,, NC,, NC
CH4-5,2018-05-01T19:00:00Z,-79.19,54.15,2.70,12.86,,-0.88,,, NC,, NC
CH4-5,2018-05-01T19:10:00Z,-79.19,54.15,2.70,12.84,,-0.87,,, NC,, NC
CH4-5,2018-05-01T19:20:00Z,-79.19,54.15,2.70,12.85,,-0.88,,, NC,, NC
CH4-5,2018-05-01T19:30:00Z,-79.19,54.15,2.70,12.84,,-0.87,,, NC,, NC
CH4-5,2018-05-01T19:40:00Z,-79.19,54.15,2.70,12.86,,-0.87,,, NC,, NC
CH4-5,2018-05-01T19:50:00Z,-79.19,54.15,2.70,13.41,,-0.89,,, NC,, NC
CH4-5,2018-05-01T20:00:00Z,-79.19,54.15,2.70,13.35,,-0.89,,, NC,, NC
CH4-5,2018-05-01T20:10:00Z,-79.19,54.15,2.70,13.41,,-0.89,,, NC,, NC
CH4-5,2018-05-01T20:20:00Z,-79.19,54.15,2.70,13.62,,-0.90,,, NC,, NC
CH4-5,2018-05-01T20:30:00Z,-79.19,54.15,2.70,13.72,,-0.91,,, NC,, NC
CH4-5,2018-05-01T20:40:00Z,-79.19,54.15,2.70,13.94,,-0.93,,, NC,, NC
CH4-5,2018-05-01T20:50:00Z,-79.19,54.15,2.70,14.01,,-0.93,,, NC,, NC
CH4-5,2018-05-01T21:00:00Z,-79.19,54.15,2.70,14.29,,-0.95,,, NC,, NC
CH4-5,2018-05-01T21:10:00Z,-79.19,54.15,2.70,14.76,,-0.95,,, NC,, NC
CH4-5,2018-05-01T21:20:00Z,-79.19,54.15,2.70,14.90,,-0.97,,, NC,, NC
CH4-5,2018-05-01T21:30:00Z,-79.19,54.15,2.70,14.95,,-0.96,,, NC,, NC
CH4-5,2018-05-01T21:40:00Z,-79.19,54.15,2.70,14.98,,-0.96,,, NC,, NC
CH4-5,2018-05-01T21:50:00Z,-79.19,54.15,2.70,14.98,,-0.97,,, NC,, NC
CH4-5,2018-05-01T22:00:00Z,-79.19,54.15,2.70,14.99,,-0.97,,, NC,, NC
CH4-5,2018-05-01T22:10:00Z,-79.19,54.15,2.70,15.01,,-0.97,,, NC,, NC
CH4-5,2018-05-01T22:20:00Z,-79.19,54.15,2.70,15.09,,-0.97,,, NC,, NC
CH4-5,2018-05-01T22:30:00Z,-79.19,54.15,2.70,15.11,,-0.96,,, NC,, NC
CH4-5,2018-05-01T22:40:00Z,-79.19,54.15,2.70,15.11,,-0.97,,, NC,, NC
CH4-5,2018-05-01T22:50:00Z,-79.19,54.15,2.70,15.04,,-0.97,,, NC,, NC
CH4-5,2018-05-01T23:00:00Z,-79.19,54.15,2.70,15.08,,-0.96,,, NC,, NC
CH4-5,2018-05-01T23:10:00Z,-79.19,54.15,2.70,15.07,,-0.97,,, NC,, NC
CH4-5,2018-05-01T23:20:00Z,-79.19,54.15,2.70,15.08,,-0.97,,, NC,, NC
CH4-5,2018-05-01T23:30:00Z,-79.19,54.15,2.70,15.04,,-0.96,,, NC,, NC
CH4-5,2018-05-01T23:40:00Z,-79.19,54.15,2.70,14.99,,-0.96,,, NC,, NC
CH4-5,2018-05-01T23:50:00Z,-79.19,54.15,2.70,15.00,,-0.96,,, NC,, NC
CH4-5,2018-05-02T00:00:00Z,-79.19,54.15,2.70,14.93,,-0.96,,, NC,, NC
CH4-5,2018-05-02T00:10:00Z,-79.19,54.15,2.70,14.89,,-0.96,,, NC,, NC
CH4-5,2018-05-02T00:20:00Z,-79.19,54.15,2.70,15.01,,-0.96,,, NC,, NC
CH4-5,2018-05-02T00:30:00Z,-79.19,54.15,2.70,15.09,,-0.97,,, NC,, NC
CH4-5,2018-05-02T00:40:00Z,-79.19,54.15,2.70,15.08,,-0.97,,, NC,, NC
CH4-5,2018-05-02T00:50:00Z,-79.19,54.15,2.70,15.05,,-0.97,,, NC,, NC
CH4-5,2018-05-02T01:00:00Z,-79.19,54.15,2.70,15.07,,-0.98,,, NC,, NC
CH4-5,2018-05-02T01:10:00Z,-79.19,54.15,2.70,15.08,,-0.98,,, NC,, NC
CH4-5,2018-05-02T01:20:00Z,-79.19,54.15,2.70,15.07,,-0.98,,, NC,, NC
CH4-5,2018-05-02T01:30:00Z,-79.19,54.15,2.70,15.06,,-0.98,,, NC,, NC
CH4-5,2018-05-02T01:40:00Z,-79.19,54.15,2.70,15.07,,-0.98,,, NC,, NC
CH4-5,2018-05-02T01:50:00Z,-79.19,54.15,2.70,15.07,,-0.98,,, NC,, NC
CH4-5,2018-05-02T02:00:00Z,-79.19,54.15,2.70,15.08,,-0.99,,, NC,, NC
CH4-5,2018-05-02T02:10:00Z,-79.19,54.15,2.70,15.07,,-0.98,,, NC,, NC
CH4-5,2018-05-02T02:20:00Z,-79.19,54.15,2.70,15.07,,-0.99,,, NC,, NC
CH4-5,2018-05-02T02:30:00Z,-79.19,54.15,2.70,15.05,,-0.98,,, NC,, NC
CH4-5,2018-05-02T02:40:00Z,-79.19,54.15,2.70,15.04,,-0.98,,, NC,, NC
CH4-5,2018-05-02T02:50:00Z,-79.19,54.15,2.70,15.03,,-0.98,,, NC,, NC
CH4-5,2018-05-02T03:00:00Z,-79.19,54.15,2.70,15.01,,-0.98,,, NC,, NC
CH4-5,2018-05-02T03:10:00Z,-79.19,54.15,2.70,14.96,,-0.98,,, NC,, NC
CH4-5,2018-05-02T03:20:00Z,-79.19,54.15,2.70,14.69,,-0.97,,, NC,, NC
CH4-5,2018-05-02T03:30:00Z,-79.19,54.15,2.70,14.43,,-0.96,,, NC,, NC
CH4-5,2018-05-02T03:40:00Z,-79.19,54.15,2.70,14.21,,-0.95,,, NC,, NC
CH4-5,2018-05-02T03:50:00Z,-79.19,54.15,2.70,14.04,,-0.95,,, NC,, NC
CH4-5,2018-05-02T04:00:00Z,-79.19,54.15,2.70,13.89,,-0.93,,, NC,, NC
CH4-5,2018-05-02T04:10:00Z,-79.19,54.15,2.70,13.81,,-0.93,,, NC,, NC
CH4-5,2018-05-02T04:20:00Z,-79.19,54.15,2.70,13.76,,-0.93,,, NC,, NC
CH4-5,2018-05-02T04:30:00Z,-79.19,54.15,2.70,13.71,,-0.92,,, NC,, NC
CH4-5,2018-05-02T04:40:00Z,-79.19,54.15,2.70,13.68,,-0.92,,, NC,, NC
CH4-5,2018-05-02T04:50:00Z,-79.19,54.15,2.70,13.65,,-0.92,,, NC,, NC
CH4-5,2018-05-02T05:00:00Z,-79.19,54.15,2.70,13.62,,-0.92,,, NC,, NC
CH4-5,2018-05-02T05:10:00Z,-79.19,54.15,2.70,13.60,,-0.92,,, NC,, NC
CH4-5,2018-05-02T05:20:00Z,-79.19,54.15,2.70,13.57,,-0.92,,, NC,, NC
CH4-5,2018-05-02T05:30:00Z,-79.19,54.15,2.70,13.53,,-0.91,,, NC,, NC
CH4-5,2018-05-02T05:40:00Z,-79.19,54.15,2.70,13.47,,-0.91,,, NC,, NC
CH4-5,2018-05-02T05:50:00Z,-79.19,54.15,2.70,13.42,,-0.91,,, NC,, NC
CH4-5,2018-05-02T06:00:00Z,-79.19,54.15,2.70,13.37,,-0.91,,, NC,, NC
CH4-5,2018-05-02T06:10:00Z,-79.19,54.15,2.70,13.30,,-0.91,,, NC,, NC
CH4-5,2018-05-02T06:20:00Z,-79.19,54.15,2.70,13.25,,-0.90,,, NC,, NC
CH4-5,2018-05-02T06:30:00Z,-79.19,54.15,2.70,13.20,,-0.90,,, NC,, NC
CH4-5,2018-05-02T06:40:00Z,-79.19,54.15,2.70,13.15,,-0.90,,, NC,, NC
CH4-5,2018-05-02T06:50:00Z,-79.19,54.15,2.70,13.11,,-0.90,,, NC,, NC
CH4-5,2018-05-02T07:00:00Z,-79.19,54.15,2.70,13.08,,-0.90,,, NC,, NC
CH4-5,2018-05-02T07:10:00Z,-79.19,54.15,2.70,13.04,,-0.90,,, NC,, NC
CH4-5,2018-05-02T07:20:00Z,-79.19,54.15,2.70,13.02,,-0.90,,, NC,, NC
CH4-5,2018-05-02T07:30:00Z,-79.19,54.15,2.70,12.99,,-0.89,,, NC,, NC
CH4-5,2018-05-02T07:40:00Z,-79.19,54.15,2.70,12.98,,-0.89,,, NC,, NC
CH4-5,2018-05-02T07:50:00Z,-79.19,54.15,2.70,12.97,,-0.89,,, NC,, NC
CH4-5,2018-05-02T08:00:00Z,-79.19,54.15,2.70,12.96,,-0.89,,, NC,, NC
CH4-5,2018-05-02T08:10:00Z,-79.19,54.15,2.70,12.97,,-0.89,,, NC,, NC